KD8PH Weather Reports


Display with metric or nautical units.
time (UTC)temp
F
wind
direction
speed
MPH
gust
MPH
rain 1hr
in
rain 24hr
in
rain mn
in
humidity
%
barometer
mb
20260508114548 53 0.0 2.0 0.00 0.64 0.00 87 1016.3
20260508113538 53 23 1.0 2.0 0.00 0.64 0.00 86 1016.2
20260508112541 53 23 1.0 2.0 0.00 0.64 0.00 86 1016.0
20260508111536 53 23 1.0 2.0 0.00 0.64 0.00 85 1015.8
20260508110550 53 45 2.0 5.0 0.00 0.64 0.00 85 1015.6
20260508105543 53 23 2.0 3.0 0.00 0.64 0.00 84 1015.4
20260508104546 53 23 2.0 4.0 0.00 0.64 0.00 85 1015.3
20260508103542 53 23 2.0 4.0 0.00 0.64 0.00 84 1015.3
20260508102543 53 23 3.0 5.0 0.00 0.64 0.00 84 1015.1
20260508101533 53 23 2.0 4.0 0.00 0.65 0.00 84 1015.0
20260508100536 53 23 2.0 5.0 0.00 0.65 0.00 85 1014.9
20260508095537 53 23 2.0 4.0 0.00 0.65 0.00 86 1014.6
20260508094539 53 23 2.0 4.0 0.00 0.65 0.00 87 1014.5
20260508093544 54 23 2.0 4.0 0.00 0.65 0.00 86 1014.3
20260508092537 54 23 2.0 4.0 0.00 0.65 0.00 86 1014.3
20260508091535 53 23 2.0 4.0 0.00 0.65 0.00 87 1014.3
20260508090538 53 23 2.0 3.0 0.00 0.65 0.00 88 1014.4
20260508085542 53 23 2.0 3.0 0.00 0.65 0.00 90 1014.3
20260508084535 52 23 1.0 3.0 0.00 0.65 0.00 91 1014.3
20260508083537 52 45 1.0 2.0 0.00 0.65 0.00 92 1014.1
20260508082536 52 0.0 1.0 0.00 0.65 0.00 91 1014.1
20260508081536 52 0 1.0 2.0 0.00 0.65 0.00 91 1014.0
20260508080557 52 0 2.0 3.0 0.00 0.65 0.00 91 1014.1
20260508075538 52 0.0 0.0 0.00 0.65 0.00 91 1013.9
20260508074535 52 0.0 0.0 0.00 0.66 0.00 91 1013.9
20260508073535 52 0.0 0.0 0.00 0.66 0.00 91 1014.0
20260508072553 53 0.0 0.0 0.00 0.66 0.00 91 1014.0
20260508071544 53 338 1.0 2.0 0.00 0.66 0.00 91 1013.9
20260508070546 53 338 1.0 2.0 0.00 0.66 0.00 90 1014.0
20260508065547 53 315 1.0 2.0 0.00 0.66 0.00 91 1014.2
20260508064535 53 0.0 1.0 0.00 0.66 0.00 91 1014.3
20260508063538 53 293 1.0 2.0 0.00 0.66 0.00 91 1014.3
20260508062540 53 315 2.0 3.0 0.00 0.66 0.00 90 1014.4
20260508061536 53 0.0 2.0 0.00 0.66 0.00 90 1014.3
20260508060536 54 0 1.0 2.0 0.00 0.66 0.00 90 1014.4
20260508055536 54 315 1.0 2.0 0.00 0.66 0.00 90 1014.4
20260508054537 54 0.0 2.0 0.00 0.66 0.00 90 1014.4
20260508053536 54 338 1.0 2.0 0.00 0.67 0.00 90 1014.3
20260508052548 55 0.0 2.0 0.00 0.67 0.00 91 1014.4
20260508051539 54 338 1.0 2.0 0.00 0.67 0.00 90 1014.2
20260508050549 55 338 2.0 3.0 0.00 0.67 0.00 90 1014.2
20260508045550 55 338 1.0 2.0 0.00 0.67 0.67 91 1014.2
20260508044536 55 0.0 1.0 0.00 0.67 0.67 90 1014.0
20260508043534 55 338 1.0 3.0 0.00 0.67 0.67 90 1014.2
20260508042545 56 0.0 0.0 0.00 0.67 0.67 90 1014.2
20260508041539 56 0.0 0.0 0.00 0.67 0.67 90 1014.1
20260508040543 56 0.0 0.0 0.00 0.67 0.67 90 1014.1
20260508035538 56 0.0 0.0 0.00 0.68 0.67 89 1014.1
20260508034534 56 338 1.0 2.0 0.00 0.68 0.67 89 1014.1
20260508033543 56 0.0 1.0 0.00 0.68 0.67 88 1014.2
20260508032540 57 315 1.0 2.0 0.00 0.68 0.67 88 1014.1
20260508031548 57 0.0 2.0 0.00 0.68 0.67 88 1014.0
20260508030545 57 0.0 1.0 0.00 0.68 0.67 88 1013.9
20260508025538 57 0.0 1.0 0.00 0.68 0.67 88 1014.0
20260508024540 58 0.0 1.0 0.00 0.68 0.67 88 1014.0
20260508023549 58 0.0 1.0 0.00 0.68 0.67 87 1013.7
20260508022537 58 315 1.0 1.0 0.00 0.68 0.67 86 1013.8
20260508021535 58 315 1.0 1.0 0.00 0.69 0.67 85 1013.5
20260508020534 58 315 1.0 2.0 0.00 0.69 0.67 85 1013.8
20260508015534 59 315 1.0 2.0 0.00 0.69 0.67 85 1013.7
20260508014544 59 293 1.0 2.0 0.00 0.69 0.67 84 1013.6
20260508013540 60 0.0 1.0 0.00 0.69 0.67 84 1013.4
20260508012535 60 0.0 1.0 0.00 0.69 0.67 84 1013.2
20260508011535 61 315 1.0 2.0 0.00 0.69 0.67 83 1013.0
20260508010541 61 315 1.0 2.0 0.00 0.70 0.67 82 1012.9
20260508005536 62 315 1.0 2.0 0.00 0.70 0.67 81 1012.8
20260508004540 62 315 1.0 2.0 0.00 0.70 0.67 78 1012.9
20260508003535 63 315 1.0 2.0 0.00 0.70 0.67 79 1012.9
20260508002541 64 0 1.0 1.0 0.00 0.70 0.67 78 1012.7
20260508001535 64 0.0 2.0 0.00 0.71 0.67 76 1012.7
20260508000541 65 0 1.0 2.0 0.00 0.71 0.67 71 1012.6
20260507235543 65 0.0 1.0 0.00 0.71 0.67 67 1012.6
20260507234540 66 0.0 1.0 0.00 0.71 0.67 67 1012.6
20260507233535 66 45 1.0 2.0 0.00 0.72 0.67 67 1012.5
20260507232540 66 0.0 1.0 0.00 0.72 0.67 66 1012.5
20260507231535 66 0.0 3.0 0.00 0.72 0.67 65 1012.5
20260507230538 66 45 1.0 2.0 0.00 0.73 0.67 65 1012.3
20260507225544 66 0.0 2.0 0.00 0.73 0.67 63 1012.5
20260507224533 67 45 1.0 3.0 0.00 0.73 0.67 64 1012.4
20260507223536 67 45 1.0 3.0 0.00 0.74 0.67 62 1012.4
20260507222539 66 68 1.0 2.0 0.00 0.74 0.67 65 1012.3
20260507221547 67 23 2.0 4.0 0.00 0.75 0.67 62 1012.3
20260507220536 67 0 2.0 4.0 0.00 0.75 0.67 64 1012.3
20260507215533 67 23 3.0 7.0 0.00 0.76 0.67 62 1012.2
20260507214533 67 45 2.0 5.0 0.00 0.76 0.67 61 1012.2
20260507213538 67 338 1.0 3.0 0.00 0.77 0.67 64 1012.2
20260507212536 68 45 2.0 6.0 0.00 0.77 0.67 61 1012.3
20260507211543 68 338 3.0 8.0 0.00 0.78 0.67 60 1012.1
20260507210540 68 45 4.0 11.0 0.00 0.79 0.67 63 1011.9
20260507205544 69 45 3.0 8.0 0.00 0.79 0.67 61 1012.1
20260507204548 68 0 2.0 6.0 0.00 0.79 0.67 62 1012.1
20260507203541 68 338 3.0 11.0 0.00 0.79 0.67 61 1012.1
20260507202537 69 338 2.0 5.0 0.00 0.79 0.67 60 1012.3
20260507201540 68 23 2.0 6.0 0.00 0.79 0.67 61 1012.0
20260507200538 68 23 2.0 5.0 0.00 0.79 0.67 60 1012.0
20260507195539 68 315 3.0 8.0 0.00 0.79 0.67 62 1011.9
20260507194535 67 23 2.0 4.0 0.00 0.79 0.67 63 1012.0
20260507193538 67 45 3.0 9.0 0.00 0.79 0.67 64 1011.9
20260507192554 67 68 3.0 6.0 0.00 0.79 0.67 64 1011.8
20260507191535 68 0 2.0 5.0 0.00 0.79 0.67 64 1011.8
20260507190601 68 203 1.0 4.0 0.00 0.79 0.67 64 1012.1
20260507185540 67 315 5.0 9.0 0.00 0.79 0.67 64 1012.1
20260507184547 66 315 3.0 11.0 0.00 0.79 0.67 67 1012.3
20260507183542 65 338 2.0 4.0 0.00 0.79 0.67 72 1012.4
20260507182548 65 45 1.0 3.0 0.00 0.79 0.67 74 1012.5
20260507181552 64 45 2.0 4.0 0.00 0.79 0.67 76 1012.6
20260507180603 64 68 2.0 6.0 0.00 0.79 0.67 75 1012.9
20260507175603 63 45 1.0 3.0 0.00 0.79 0.67 75 1012.9
20260507174550 63 23 2.0 4.0 0.00 0.79 0.67 76 1012.9
20260507173547 63 293 2.0 9.0 0.00 0.79 0.67 75 1012.8
20260507172538 63 23 1.0 4.0 0.00 0.79 0.67 76 1013.1
20260507171538 63 0 2.0 4.0 0.00 0.79 0.67 78 1013.2
20260507170536 63 270 1.0 3.0 0.00 0.79 0.67 79 1013.3
20260507165548 62 68 3.0 8.0 0.00 0.79 0.67 77 1013.2
20260507164538 62 45 5.0 10.0 0.00 0.79 0.67 77 1013.2
20260507163549 62 90 3.0 9.0 0.00 0.79 0.67 83 1013.0
20260507162541 61 23 2.0 4.0 0.00 0.79 0.67 84 1013.1
20260507161539 60 23 2.0 6.0 0.00 0.79 0.67 87 1012.8
20260507160546 60 135 3.0 5.0 0.00 0.79 0.67 86 1012.7
20260507155540 59 113 3.0 4.0 0.00 0.79 0.67 88 1012.6
20260507154548 58 68 2.0 5.0 0.00 0.79 0.67 88 1012.9
20260507153550 58 203 1.0 4.0 0.00 0.79 0.67 89 1013.0
20260507152550 58 203 1.0 5.0 0.00 0.79 0.67 90 1013.1
20260507151602 58 0 3.0 7.0 0.00 0.79 0.67 90 1013.1
20260507150555 58 0 1.0 3.0 0.00 0.79 0.67 90 1013.0
20260507145550 58 23 1.0 4.0 0.00 0.79 0.67 91 1012.8
20260507144554 58 338 1.0 3.0 0.00 0.79 0.67 91 1012.6
20260507143543 58 338 1.0 2.0 0.00 0.79 0.67 91 1012.6
20260507142559 58 23 1.0 3.0 0.00 0.79 0.67 92 1012.4
20260507141548 58 68 1.0 2.0 0.00 0.80 0.67 92 1012.1
20260507140540 58 45 2.0 4.0 0.00 0.81 0.67 92 1011.8
20260507135547 58 0 1.0 3.0 0.00 0.81 0.67 93 1011.8
20260507134537 57 23 3.0 5.0 0.00 0.81 0.67 92 1011.8
20260507133541 57 23 1.0 2.0 0.00 0.81 0.67 93 1011.9
20260507132541 57 338 1.0 3.0 0.64 0.81 0.67 93 1011.7
20260507131540 57 338 2.0 4.0 0.64 0.81 0.67 93 1011.8
20260507130553 57 0 2.0 4.0 0.64 0.81 0.67 93 1011.7
20260507125537 57 338 1.0 3.0 0.64 0.81 0.67 93 1011.6
20260507124536 57 338 1.0 2.0 0.64 0.81 0.67 93 1011.6
20260507123536 57 338 2.0 5.0 0.64 0.81 0.67 93 1011.6
20260507122554 57 0 1.0 3.0 0.00 0.17 0.03 93 1011.0
20260507121547 57 338 2.0 3.0 0.00 0.17 0.03 93 1011.0
20260507120539 58 293 1.0 4.0 0.00 0.17 0.03 93 1010.9
20260507115537 57 315 2.0 3.0 0.00 0.17 0.03 93 1010.8